Cloud_Cover
100 100 99 100 91 100 100 77 46 100 100 100 100 100 100 100 97 100 97 100 100 100
98 100 100 100 65 100 100 47 40 82 100 100 100 100 100 100 100 100 100 100 100 100
99 100 94 100 78 100 100 100 88 99 100 98 100 100 100 100 100 100 100 100 100 100
96 72 100 100 80 100 100 100 100 100 100 100 100 100 100 100 100 100 100 100 100 100
100 58 100 100 100 100 100 100 100 100 100 100 100 100 100 100 100 100 100 100 100 100
100 76 95 100 100 100 100 100 100 100 100 100 100 100 100 100 100 100 100 100 100 100
100 100 100 100 100 100 100 100 100 100 100 97 100 100 100 100 100 100 100 100 100 100
100 100 100 100 100 100 100 100 100 100 100 100 100 99 100 100 100 100 100 100 100 100
100 100 100 100 100 100 100 100 100 100 100 100 100 100 100 100 100 100 100 100 100 100
100 100 100 100 100 100 100 100 100 100 100 100 100 100 100 100 100 100 100 100 100 100
100 100 100 100 100 100 100 100 100 100 100 100 100 100 100 100 100 100 100 100 100 100
100 100 100 100 100 100 100 100 100 100 100 100 100 100 100 100 100 100 100 100 100 100
100 100 100 100 100 100 100 100 100 100 100 100 100 100 100 100 100 100 100 100 100 100
100 100 100 100 100 100 100 100 100 100 100 100 100 100 100 100 100 100 100 100 100 100